Wind_Speed
19 20 19 17 13 10 6 4 5 6 5 1 3 3 4 6 3 6 4 4 6 7 9 14 17 22 23 14 15 16 12 11 23 30 21 18 16 17 18 11 9 10 8 2
18 17 17 14 11 8 6 6 5 5 3 4 5 4 3 4 1 2 2 3 4 7 10 11 9 13 16 24 18 12 10 11 16 21 21 22 21 22 19 13 11 15 8 2
17 16 13 10 8 8 7 6 3 3 2 6 10 7 5 3 4 3 2 3 2 4 6 9 14 18 15 15 16 19 23 18 18 21 10 6 14 26 21 18 9 10 13 14
15 12 11 10 9 8 6 5 4 4 3 4 5 5 6 4 3 5 3 4 3 8 10 17 13 13 16 16 20 17 17 17 18 24 28 13 12 15 22 19 13 11 13 15
12 12 11 10 9 7 5 5 3 4 6 7 7 5 5 5 4 4 7 7 6 10 14 15 21 15 15 16 13 12 17 20 17 27 23 18 12 8 10 11 11 12 11 10
15 13 12 10 9 6 4 4 4 6 8 5 6 6 6 6 5 5 7 8 12 12 15 17 20 23 23 23 21 19 18 12 11 21 21 12 8 17 15 10 7 7 9 11
17 13 12 10 7 5 4 3 4 5 4 7 7 7 6 7 7 8 9 9 12 14 19 24 23 24 25 24 24 21 24 17 16 27 23 11 8 4 7 6 5 1 4 9
16 15 12 10 7 6 3 3 5 5 7 7 8 9 8 8 8 8 8 10 11 16 19 18 17 18 22 22 20 19 22 17 12 10 17 10 11 7 5 2 6 2 4 7
16 15 13 10 7 6 4 3 5 7 11 4 9 4 5 3 5 7 8 9 12 14 14 10 12 12 18 4 8 18 18 16 16 17 4 5 12 4 0 2 7 9 8 7
18 17 13 10 8 7 5 7 9 10 10 3 8 3 6 3 3 4 7 10 7 9 10 14 12 13 14 7 11 14 14 14 18 11 4 8 5 8 4 6 3 11 11 15
20 17 14 11 10 9 9 12 11 9 8 4 5 3 2 3 3 4 8 6 4 5 9 8 10 13 1 4 4 9 8 7 6 7 3 2 4 3 1 2 6 11 12 13
21 19 17 14 12 12 14 13 12 10 7 8 4 3 3 1 4 7 6 5 8 6 8 9 13 18 9 7 5 1 3 2 1 3 6 2 4 8 7 7 12 12 12 12
23 21 18 15 13 13 16 12 12 7 5 3 5 5 0 2 4 5 5 2 5 6 8 14 11 10 13 11 10 4 3 3 2 3 5 9 11 13 10 13 13 9 8 6
24 21 19 17 16 16 17 14 10 9 5 5 5 10 6 2 4 5 7 11 12 12 10 12 9 11 10 8 9 9 9 8 5 8 8 7 10 7 4 2 6 4 1 3
23 20 18 16 16 15 13 14 13 12 8 6 6 4 8 7 7 8 9 12 13 10 12 10 9 9 12 9 6 4 11 12 5 6 6 9 6 4 2 3 3 4 2 2
22 20 17 17 16 14 10 12 14 11 10 11 12 15 16 16 16 15 13 12 13 13 13 12 8 6 10 9 8 7 12 13 8 6 7 6 4 4 3 2 0 2 2 2
21 18 18 17 17 14 17 11 8 6 6 16 16 13 14 12 15 13 13 14 12 11 13 10 9 6 9 9 9 14 16 8 0 5 8 7 5 4 2 1 0 2 3 5
19 18 18 17 16 15 18 15 12 12 16 17 10 9 14 9 10 11 14 12 10 11 11 11 10 7 8 7 10 12 11 3 1 4 3 5 3 3 3 4 5 6 7 8
20 18 18 17 18 18 14 12 14 17 17 6 9 10 5 6 9 10 8 9 9 9 14 11 6 8 7 10 9 11 11 4 3 2 2 1 2 4 6 7 9 10 10 10
22 21 15 14 19 13 12 13 15 12 16 19 16 8 7 5 8 8 5 5 7 6 7 5 10 14 20 18 15 15 11 8 6 6 5 6 8 9 10 11 11 11 11 11
25 18 15 12 11 12 12 6 7 7 7 10 14 13 9 8 5 7 7 4 4 3 6 6 5 10 8 10 15 15 14 11 10 9 10 11 12 13 12 11 11 11 11 11
19 19 17 15 16 7 7 6 7 7 6 8 11 13 13 9 9 6 6 5 4 6 8 4 4 10 8 8 7 7 8 9 9 9 9 9 9 10 11 12 13 13 13 12
21 18 19 11 9 8 8 9 6 7 7 10 11 14 17 12 10 7 4 5 7 4 4 4 6 5 5 6 5 5 5 6 7 8 9 11 12 13 13 13 12 11 10 9
15 12 13 9 6 8 10 10 10 11 7 9 10 11 10 11 10 7 6 7 4 4 4 6 7 5 3 3 4 5 5 7 9 10 10 11 11 10 9 8 8 7 7 6
16 9 7 11 13 9 9 9 10 10 9 10 10 9 8 10 7 6 6 3 3 3 4 5 5 5 4 4 5 6 8 10 9 9 9 8 7 6 5 4 4 4 5 6
10 8 8 8 11 10 11 12 12 12 12 10 12 7 5 7 5 4 3 2 2 4 4 5 6 6 7 7 9 9 8 7 7 7 6 5 4 4 4 4 5 6 8 10
10 8 9 9 9 11 11 13 12 14 14 11 7 5 5 3 3 4 5 6 5 7 9 9 9 10 10 10 9 7 6 5 4 2 2 2 3 5 7 8 11 13 15 17
Wind_Direction
178 173 174 175 176 178 184 201 231 276 285 290 174 181 194 246 250 299 279 277 278 287 295 288 277 267 255 297 302 294 269 267 252 239 246 241 246 235 238 244 265 255 277 317
181 176 176 170 172 185 197 212 253 278 284 152 159 195 198 186 174 224 231 253 272 280 291 296 285 284 274 260 276 277 274 254 263 248 248 238 237 237 239 233 260 271 281 268
183 179 171 173 178 197 203 217 227 264 232 175 187 162 157 175 215 206 169 253 272 308 308 287 285 295 284 273 255 269 291 276 263 271 308 259 252 233 227 224 241 269 266 303
190 179 176 182 192 206 211 205 200 222 195 174 166 157 160 196 209 236 244 257 264 331 321 313 301 303 318 272 268 267 257 263 270 270 268 268 269 252 217 220 234 262 287 303
194 193 192 194 201 208 211 213 203 205 184 187 161 190 199 204 213 227 207 253 285 296 299 295 298 304 299 293 258 235 253 269 275 291 244 242 257 262 251 237 257 269 277 287
203 203 205 204 206 209 217 222 199 164 220 193 195 225 216 211 258 263 241 255 279 292 289 282 282 279 278 274 270 270 276 275 282 289 212 206 231 256 236 231 238 266 295 318
208 208 213 211 211 218 215 215 205 187 180 191 220 218 229 248 255 255 253 274 291 298 282 290 286 280 276 269 253 245 261 270 275 276 176 192 192 169 198 210 219 244 321 327
213 214 216 215 217 222 220 209 199 159 166 200 236 238 245 256 272 283 280 278 273 288 304 304 297 290 274 254 239 230 242 264 270 276 167 130 161 146 177 213 143 46 6 340
214 217 215 216 218 217 222 200 175 167 156 203 215 214 230 235 282 286 290 295 303 311 309 298 272 278 290 232 191 212 226 239 253 293 197 160 139 122 331 284 216 272 279 303
215 218 214 217 218 206 203 168 161 148 158 207 163 182 193 272 306 281 289 300 325 300 312 291 288 300 259 252 170 186 208 221 242 267 281 102 21 334 250 264 305 294 296 285
212 213 214 218 211 203 192 168 165 158 163 193 182 164 192 318 322 299 305 328 315 322 313 316 324 294 317 273 161 173 188 213 225 246 255 156 0 336 172 237 302 315 318 307
208 208 211 213 207 197 184 180 176 171 172 168 140 113 93 17 250 255 270 284 313 350 339 332 324 315 0 335 161 78 200 309 322 48 111 204 321 309 305 316 318 309 316 318
206 207 210 207 203 193 186 197 190 192 197 245 224 189 336 10 343 287 252 262 267 302 314 326 325 329 354 348 11 39 116 10 347 323 312 316 297 292 269 277 296 291 305 314
205 208 207 207 205 203 202 205 205 209 240 270 262 239 251 165 343 297 236 212 262 294 293 298 307 309 339 329 336 340 2 338 321 312 313 323 335 315 268 240 264 294 26 350
206 207 207 209 209 211 202 209 214 221 226 227 199 207 204 294 319 305 269 248 265 284 280 297 306 310 325 323 312 314 354 352 321 252 281 277 292 298 128 100 72 104 103 11
204 207 206 207 206 199 191 220 217 223 244 265 279 258 259 268 288 301 275 260 264 278 286 296 302 345 319 323 312 324 335 335 316 262 249 247 239 217 142 121 320 304 314 343
209 203 203 204 203 194 200 206 201 210 245 269 276 285 283 278 256 261 250 255 271 275 282 279 290 298 310 284 291 307 309 313 359 116 139 150 145 128 120 102 2 342 335 333
196 199 199 199 198 198 205 214 242 269 281 257 238 254 275 278 253 226 236 254 265 267 268 272 281 278 271 266 289 314 320 263 169 213 171 122 91 43 11 339 323 320 315 310
185 187 192 194 198 209 221 238 260 273 243 222 234 243 269 247 216 220 236 235 252 255 258 259 257 266 242 257 284 312 330 254 248 218 165 86 326 316 316 316 312 306 301 299
173 172 179 212 216 218 228 240 242 234 225 231 245 228 246 227 204 218 209 234 238 262 289 254 250 246 250 255 267 276 289 299 301 251 249 290 300 306 308 309 309 305 299 293
167 175 187 205 209 204 191 201 196 208 221 238 234 222 222 215 217 205 206 225 228 249 244 214 240 261 293 260 261 268 269 271 274 275 276 287 293 296 298 300 299 300 300 293
174 187 186 178 171 178 192 204 206 209 214 231 206 207 200 223 209 202 217 236 239 240 227 202 232 268 282 268 275 269 261 265 273 282 288 293 294 292 292 292 291 291 287 283
184 177 177 174 188 196 203 209 202 196 214 210 203 201 205 216 216 226 218 232 236 236 208 230 251 282 276 282 286 288 294 299 301 299 296 294 292 291 290 289 287 283 280 276
181 180 184 192 205 212 212 197 204 212 205 180 173 185 185 211 208 206 239 231 231 225 227 229 284 281 266 247 255 266 280 290 291 288 289 293 294 293 291 291 290 291 290 290
180 173 195 220 219 222 220 217 208 199 185 169 171 184 179 191 207 219 242 227 229 235 230 278 290 280 260 263 264 275 284 283 285 293 296 294 292 293 296 299 303 308 307 303
169 194 227 232 218 220 207 200 195 184 174 186 183 194 201 206 214 225 234 248 245 251 264 277 265 246 245 253 266 275 278 284 288 289 295 302 309 314 317 318 314 308 304 301
200 217 244 226 225 213 196 194 193 187 180 167 188 195 207 205 210 226 220 230 258 269 271 265 251 250 261 270 270 271 277 279 274 270 279 303 315 315 311 308 307 306 305 303
Height
2987 2990 2993 2996 2999 3001 3002 3004 3006 3006 3006 3009 3009 3012 3009 3010 3009 3010 3011 3011 3012 3012 3012 3011 3010 3009 3008 3007 3006 3003 3003 2998 2994 2993 2994 2995 2995 2996 2998 2996 2991 2990 2987 2985
2986 2989 2992 2993 2996 2998 3000 3002 3003 3003 3003 3006 3008 3006 3007 3008 3009 3010 3011 3011 3011 3011 3011 3010 3006 3004 3004 3003 3004 3001 2998 2996 2993 2990 2991 2989 2989 2991 2992 2993 2992 2990 2989 2984
2984 2987 2990 2992 2995 2997 2999 3001 3000 3000 3001 3003 3004 3005 3007 3008 3007 3007 3007 3008 3008 3008 3007 3006 3003 3001 3001 3000 2999 2999 2996 2994 2994 2986 2987 2986 2983 2985 2987 2990 2990 2987 2986 2984
2983 2985 2987 2991 2993 2995 2997 2997 2998 2998 2999 3003 3003 3004 3006 3007 3007 3006 3007 3006 3005 3005 3004 3002 3000 2998 2996 2994 2995 2995 2993 2989 2990 2986 2983 2984 2980 2979 2982 2984 2985 2986 2985 2984
2980 2984 2987 2989 2992 2993 2994 2995 2996 2997 3000 2998 3002 3003 3005 3006 3007 3006 3006 3004 3004 3004 3003 3002 2997 2995 2994 2992 2990 2988 2987 2984 2986 2980 2980 2982 2979 2977 2979 2981 2982 2983 2983 2982
2979 2983 2986 2988 2989 2990 2991 2993 2993 2996 2997 2999 3003 3004 3003 3004 3004 3004 3003 3003 3001 3000 3000 2997 2994 2990 2988 2988 2987 2986 2985 2985 2985 2974 2974 2979 2980 2979 2979 2980 2980 2981 2981 2979
2977 2980 2984 2986 2986 2988 2989 2990 2991 2993 2997 2999 3001 3000 3001 3002 3002 3001 3000 2999 2999 2999 2996 2989 2986 2983 2980 2980 2979 2981 2980 2982 2981 2972 2967 2973 2971 2975 2976 2977 2979 2979 2979 2977
2975 2978 2981 2983 2984 2985 2985 2987 2989 2991 2994 2998 2998 2998 2999 2999 2998 2997 2997 2997 2996 2992 2990 2987 2982 2978 2973 2970 2972 2976 2978 2978 2976 2963 2959 2968 2971 2975 2977 2976 2976 2976 2977 2976
2972 2976 2979 2981 2982 2983 2984 2984 2985 2988 2992 2996 2995 2996 2997 2997 2997 2997 2995 2994 2990 2989 2986 2984 2981 2974 2971 2965 2966 2971 2974 2975 2978 2969 2964 2964 2970 2973 2974 2975 2975 2973 2972 2972
2969 2973 2976 2978 2980 2981 2983 2984 2986 2987 2989 2992 2992 2996 2996 2993 2993 2995 2994 2992 2990 2989 2986 2982 2977 2972 2968 2965 2964 2969 2971 2971 2972 2969 2964 2966 2969 2971 2972 2974 2979 2971 2971 2970
2967 2970 2973 2976 2978 2979 2981 2984 2985 2987 2988 2990 2990 2990 2991 2992 2992 2993 2993 2992 2990 2988 2986 2982 2977 2970 2966 2965 2965 2966 2968 2969 2968 2968 2967 2968 2969 2971 2973 2974 2972 2970 2969 2968
2963 2967 2970 2973 2975 2978 2980 2983 2985 2986 2987 2989 2989 2990 2990 2990 2990 2990 2991 2991 2989 2989 2987 2985 2978 2972 2970 2967 2966 2966 2969 2969 2965 2969 2970 2970 2971 2972 2972 2972 2971 2969 2968 2966
2959 2963 2967 2970 2973 2976 2979 2982 2984 2986 2987 2988 2989 2989 2990 2989 2988 2988 2988 2991 2990 2988 2987 2985 2981 2976 2974 2970 2966 2968 2970 2969 2969 2971 2970 2970 2970 2970 2970 2970 2970 2968 2967 2966
2957 2961 2964 2968 2971 2974 2977 2980 2983 2985 2987 2987 2989 2987 2988 2988 2988 2987 2987 2987 2986 2986 2986 2984 2983 2980 2977 2974 2973 2971 2971 2971 2970 2970 2970 2970 2969 2968 2968 2968 2968 2967 2967 2967
2954 2958 2962 2966 2969 2972 2975 2979 2981 2983 2988 2987 2987 2985 2986 2986 2986 2985 2984 2984 2984 2985 2984 2983 2982 2981 2978 2975 2973 2971 2971 2970 2969 2969 2970 2971 2970 2969 2968 2968 2968 2968 2968 2968
2952 2956 2960 2963 2967 2970 2974 2976 2979 2982 2983 2984 2984 2983 2983 2983 2983 2983 2982 2982 2982 2982 2982 2981 2981 2980 2981 2978 2974 2973 2972 2971 2969 2968 2969 2970 2969 2969 2969 2969 2969 2969 2969 2969
2950 2954 2958 2961 2965 2969 2972 2976 2977 2979 2980 2981 2981 2979 2976 2977 2979 2980 2980 2979 2980 2981 2980 2981 2980 2980 2980 2977 2975 2973 2972 2971 2970 2968 2968 2970 2970 2970 2970 2970 2970 2970 2970 2969
2948 2952 2957 2960 2963 2966 2969 2972 2974 2976 2978 2978 2978 2977 2975 2975 2975 2977 2977 2978 2979 2979 2979 2979 2979 2979 2979 2976 2974 2973 2971 2969 2969 2969 2969 2970 2971 2971 2971 2970 2970 2970 2970 2969
2946 2951 2955 2959 2962 2964 2967 2970 2972 2972 2976 2974 2973 2974 2974 2971 2973 2975 2976 2976 2977 2978 2976 2977 2978 2976 2976 2973 2973 2971 2970 2969 2969 2970 2970 2970 2971 2970 2970 2969 2969 2968 2968 2967
2945 2950 2956 2958 2960 2964 2967 2968 2969 2969 2969 2970 2969 2972 2972 2972 2972 2973 2976 2975 2976 2975 2974 2973 2972 2972 2970 2970 2970 2969 2970 2969 2969 2969 2970 2969 2969 2968 2968 2967 2966 2965 2964 2964
2944 2949 2954 2956 2959 2961 2963 2964 2966 2966 2966 2965 2965 2968 2970 2971 2972 2972 2974 2974 2974 2974 2974 2972 2970 2967 2965 2965 2965 2966 2966 2967 2968 2968 2967 2967 2966 2965 2965 2964 2963 2963 2962 2961
2945 2949 2953 2955 2958 2960 2962 2961 2962 2962 2964 2962 2963 2965 2969 2970 2970 2972 2973 2973 2972 2969 2969 2969 2967 2964 2963 2963 2963 2963 2964 2964 2965 2964 2964 2964 2963 2963 2962 2962 2961 2960 2959 2959
2944 2948 2951 2954 2956 2957 2957 2956 2957 2959 2958 2959 2960 2963 2965 2968 2970 2970 2971 2970 2968 2967 2966 2965 2963 2963 2962 2961 2961 2961 2961 2961 2961 2961 2961 2960 2960 2959 2959 2958 2957 2957 2956 2956
2943 2947 2949 2951 2951 2951 2951 2954 2955 2956 2956 2957 2960 2962 2965 2966 2968 2969 2968 2966 2965 2964 2963 2962 2961 2961 2961 2961 2961 2961 2961 2960 2960 2960 2959 2958 2958 2957 2957 2956 2955 2955 2954 2953
2943 2946 2947 2946 2947 2948 2949 2951 2953 2955 2956 2958 2960 2963 2964 2965 2966 2965 2965 2963 2961 2961 2960 2960 2960 2959 2959 2960 2960 2960 2960 2959 2959 2958 2957 2957 2956 2956 2955 2954 2954 2953 2953 2952
2941 2943 2943 2943 2945 2946 2948 2950 2952 2954 2956 2958 2960 2962 2962 2963 2963 2962 2962 2962 2961 2959 2958 2958 2958 2958 2958 2959 2959 2958 2958 2957 2957 2956 2956 2955 2955 2954 2954 2953 2953 2952 2952 2951
2940 2941 2941 2942 2944 2945 2947 2949 2952 2954 2956 2958 2959 2960 2960 2961 2960 2961 2960 2959 2959 2958 2958 2958 2957 2958 2958 2957 2957 2957 2956 2956 2956 2955 2955 2955 2954 2954 2953 2952 2951 2950 2948 2947